BCS766 LMML-DTNH

Flight info

Callsign BCS766
Flight time 0h 44m
Altitude 22000
Route GZO L30 OMENI J92 SORAB SORAB1E
Aircraft B737/M-SDE2E3FGHIRWXY/LB1

Departure

Time 2026-04-26 18:44
Airport Malta International Airport (LMML)

Arrival

Time 2026-04-26 19:29
Airport Enfidha - Hammamet International Airport (DTNH)
Time Latitude Longitude Altitude Speed Heading
2026-04-26 18:22 35.85998 14.47719 273 ft 0 kts 88°
2026-04-26 18:34 35.85998 14.47703 275 ft 4 kts 88°
2026-04-26 18:34 35.85997 14.47670 271 ft 4 kts 87°
2026-04-26 18:34 35.86002 14.47644 275 ft 4 kts 134°
2026-04-26 18:35 35.86016 14.47627 273 ft 0 kts 134°
2026-04-26 18:38 35.86008 14.47636 274 ft 3 kts 134°
2026-04-26 18:38 35.85988 14.47667 273 ft 5 kts 124°
2026-04-26 18:39 35.85966 14.47700 274 ft 5 kts 135°
2026-04-26 18:39 35.85939 14.47730 269 ft 6 kts 137°
2026-04-26 18:39 35.85916 14.47773 271 ft 6 kts 103°
2026-04-26 18:39 35.85922 14.47826 271 ft 6 kts 72°
2026-04-26 18:40 35.85936 14.47877 269 ft 6 kts 71°
2026-04-26 18:40 35.85951 14.47926 276 ft 6 kts 69°
2026-04-26 18:40 35.85969 14.47973 275 ft 6 kts 61°
2026-04-26 18:40 35.85988 14.48017 273 ft 6 kts 61°
2026-04-26 18:41 35.86007 14.48061 273 ft 6 kts 65°
2026-04-26 18:41 35.86006 14.48107 273 ft 6 kts 123°
2026-04-26 18:41 35.85972 14.48116 273 ft 5 kts 206°
2026-04-26 18:41 35.85957 14.48093 277 ft 0 kts 234°
2026-04-26 18:43 35.85914 14.48020 271 ft 38 kts 234°
2026-04-26 18:44 35.85601 14.47486 273 ft 113 kts 234°
2026-04-26 18:44 35.85041 14.46495 388 ft 161 kts 236°
2026-04-26 18:44 35.84400 14.45340 1115 ft 163 kts 236°
2026-04-26 18:44 35.83740 14.44184 1906 ft 167 kts 234°
2026-04-26 18:45 35.83021 14.42936 2435 ft 194 kts 234°
2026-04-26 18:45 35.82170 14.41463 2748 ft 227 kts 234°
2026-04-26 18:45 35.81181 14.39756 3114 ft 258 kts 234°
2026-04-26 18:45 35.80243 14.37843 4006 ft 265 kts 251°
2026-04-26 18:46 35.79971 14.35593 4708 ft 268 kts 274°
2026-04-26 18:46 35.80373 14.33376 4999 ft 268 kts 292°
2026-04-26 18:46 35.81415 14.31473 5009 ft 270 kts 317°
2026-04-26 18:46 35.82811 14.29918 5004 ft 270 kts 319°
2026-04-26 18:47 35.84191 14.28420 5018 ft 266 kts 319°
2026-04-26 18:47 35.85587 14.26915 5193 ft 270 kts 319°
2026-04-26 18:47 35.87011 14.25380 6097 ft 271 kts 319°
2026-04-26 18:47 35.88426 14.23850 7209 ft 270 kts 318°
2026-04-26 18:48 35.89842 14.22318 8198 ft 273 kts 318°
2026-04-26 18:48 35.91415 14.20982 9092 ft 279 kts 338°
2026-04-26 18:48 35.93330 14.20488 10061 ft 284 kts 354°
2026-04-26 18:48 35.95340 14.20435 10739 ft 298 kts 358°
2026-04-26 18:49 35.97509 14.20421 10941 ft 325 kts 353°
2026-04-26 18:49 35.99752 14.19687 11179 ft 345 kts 333°
2026-04-26 18:49 36.01769 14.18045 11797 ft 351 kts 315°
2026-04-26 18:49 36.03195 14.15608 12655 ft 351 kts 295°
2026-04-26 18:50 36.03868 14.12718 13593 ft 353 kts 277°
2026-04-26 18:50 36.03995 14.09677 14429 ft 356 kts 272°
2026-04-26 18:50 36.04022 14.06635 15166 ft 361 kts 271°
2026-04-26 18:50 36.04022 14.03514 15937 ft 365 kts 271°
2026-04-26 18:51 36.04021 14.00364 16717 ft 369 kts 271°
2026-04-26 18:51 36.04028 13.97168 17484 ft 373 kts 271°
2026-04-26 18:51 36.04043 13.93948 18227 ft 377 kts 271°
2026-04-26 18:51 36.04066 13.90679 18889 ft 381 kts 271°
2026-04-26 18:52 36.04092 13.87387 19547 ft 385 kts 271°
2026-04-26 18:52 36.04111 13.85193 20002 ft 386 kts 271°
2026-04-26 18:52 36.04150 13.80742 20952 ft 388 kts 271°
2026-04-26 18:52 36.04178 13.77430 21579 ft 392 kts 271°
2026-04-26 18:53 36.04207 13.74047 22106 ft 397 kts 271°
2026-04-26 18:53 36.04235 13.70621 22142 ft 401 kts 271°
2026-04-26 18:53 36.04262 13.67169 22154 ft 400 kts 271°
2026-04-26 18:53 36.04288 13.63736 22162 ft 400 kts 271°
2026-04-26 18:54 36.04313 13.60301 22165 ft 400 kts 271°
2026-04-26 18:54 36.04329 13.58023 22165 ft 400 kts 271°
2026-04-26 18:54 36.04352 13.54585 22164 ft 400 kts 271°
2026-04-26 18:54 36.04375 13.51150 22162 ft 401 kts 271°
2026-04-26 18:55 36.04396 13.47700 22152 ft 400 kts 271°
2026-04-26 18:55 36.04416 13.44262 22154 ft 400 kts 271°
2026-04-26 18:55 36.04436 13.40822 22155 ft 400 kts 271°
2026-04-26 18:55 36.04454 13.37389 22155 ft 400 kts 271°
2026-04-26 18:56 36.04472 13.33955 22158 ft 399 kts 271°
2026-04-26 18:56 36.04489 13.30523 22158 ft 399 kts 271°
2026-04-26 18:56 36.04505 13.27094 22158 ft 399 kts 271°
2026-04-26 18:56 36.04519 13.23666 22158 ft 399 kts 271°
2026-04-26 18:57 36.04533 13.20240 22158 ft 399 kts 271°
2026-04-26 18:57 36.04542 13.17968 22158 ft 399 kts 271°
2026-04-26 18:57 36.04559 13.13385 22158 ft 399 kts 271°
2026-04-26 18:57 36.04571 13.09957 22158 ft 399 kts 271°
2026-04-26 18:58 36.04582 13.06534 22158 ft 399 kts 271°
2026-04-26 18:58 36.04592 13.03102 22158 ft 399 kts 271°
2026-04-26 18:58 36.04602 12.99661 22158 ft 399 kts 271°
2026-04-26 18:58 36.04610 12.96233 22158 ft 399 kts 271°
2026-04-26 18:59 36.04617 12.92850 22158 ft 399 kts 271°
2026-04-26 18:59 36.04624 12.89418 22147 ft 399 kts 271°
2026-04-26 18:59 36.04629 12.85988 22154 ft 399 kts 271°
2026-04-26 18:59 36.04633 12.82559 22158 ft 399 kts 271°
2026-04-26 19:00 36.04637 12.79134 22158 ft 399 kts 271°
2026-04-26 19:00 36.04639 12.75708 22158 ft 399 kts 270°
2026-04-26 19:00 36.04641 12.72279 22161 ft 399 kts 270°
2026-04-26 19:00 36.04641 12.68858 22161 ft 399 kts 270°
2026-04-26 19:01 36.04640 12.65435 22161 ft 399 kts 270°
2026-04-26 19:01 36.04639 12.62005 22156 ft 399 kts 270°
2026-04-26 19:01 36.04636 12.58578 22155 ft 399 kts 270°
2026-04-26 19:01 36.04633 12.55152 22155 ft 399 kts 270°
2026-04-26 19:02 36.04629 12.51727 22156 ft 399 kts 270°
2026-04-26 19:02 36.04623 12.48300 22155 ft 399 kts 270°
2026-04-26 19:02 36.04617 12.44870 22157 ft 399 kts 270°
2026-04-26 19:02 36.04612 12.42602 22158 ft 399 kts 270°
2026-04-26 19:03 36.04601 12.38063 22160 ft 399 kts 270°
2026-04-26 19:03 36.04592 12.34638 22157 ft 399 kts 270°
2026-04-26 19:03 36.04582 12.31217 22158 ft 399 kts 270°
2026-04-26 19:03 36.04571 12.27791 22158 ft 399 kts 270°
2026-04-26 19:04 36.04559 12.24365 22157 ft 399 kts 270°
2026-04-26 19:04 36.04545 12.20943 22158 ft 399 kts 270°
2026-04-26 19:04 36.04531 12.17514 22158 ft 398 kts 270°
2026-04-26 19:04 36.04516 12.14088 22157 ft 398 kts 270°
2026-04-26 19:05 36.04483 12.07240 22158 ft 398 kts 270°
2026-04-26 19:05 36.04465 12.03816 22158 ft 398 kts 270°
2026-04-26 19:05 36.04446 12.00391 22155 ft 398 kts 270°
2026-04-26 19:06 36.04426 11.96969 22158 ft 399 kts 270°
2026-04-26 19:06 36.04406 11.93540 22159 ft 399 kts 270°
2026-04-26 19:06 36.04384 11.90116 22158 ft 399 kts 270°
2026-04-26 19:06 36.04361 11.86732 22158 ft 399 kts 270°
2026-04-26 19:07 36.04339 11.83312 22160 ft 399 kts 270°
2026-04-26 19:07 36.04318 11.79886 22158 ft 399 kts 270°
2026-04-26 19:07 36.04294 11.76460 22157 ft 399 kts 270°
2026-04-26 19:07 36.04268 11.73028 22155 ft 398 kts 270°
2026-04-26 19:08 36.04241 11.69610 22151 ft 398 kts 270°
2026-04-26 19:08 36.04212 11.66181 22153 ft 398 kts 270°
2026-04-26 19:08 36.04181 11.62763 22153 ft 398 kts 270°
2026-04-26 19:08 36.04149 11.59339 22152 ft 398 kts 270°
2026-04-26 19:09 36.04117 11.55915 22153 ft 398 kts 270°
2026-04-26 19:09 36.04085 11.52498 22152 ft 398 kts 270°
2026-04-26 19:09 36.04067 11.49070 22153 ft 398 kts 271°
2026-04-26 19:09 36.04159 11.45654 22153 ft 398 kts 273°
2026-04-26 19:10 36.04300 11.42239 22150 ft 398 kts 273°
2026-04-26 19:10 36.04434 11.38870 22152 ft 398 kts 272°
2026-04-26 19:10 36.04558 11.35454 22154 ft 398 kts 272°
2026-04-26 19:10 36.04675 11.32039 22153 ft 398 kts 272°
2026-04-26 19:11 36.04791 11.28614 22155 ft 397 kts 272°
2026-04-26 19:11 36.04904 11.25261 21995 ft 386 kts 272°
2026-04-26 19:11 36.05015 11.21964 21507 ft 382 kts 272°
2026-04-26 19:11 36.05124 11.18703 20935 ft 377 kts 272°
2026-04-26 19:12 36.05230 11.15486 20325 ft 372 kts 272°
2026-04-26 19:12 36.05335 11.12305 19723 ft 368 kts 272°
2026-04-26 19:12 36.05438 11.09157 19128 ft 365 kts 272°
2026-04-26 19:12 36.05539 11.06036 18521 ft 362 kts 272°
2026-04-26 19:13 36.05638 11.02934 17844 ft 360 kts 272°
2026-04-26 19:13 36.05736 10.99859 17214 ft 356 kts 272°
2026-04-26 19:13 36.05832 10.96818 16613 ft 352 kts 273°
2026-04-26 19:13 36.05927 10.93811 16029 ft 348 kts 273°
2026-04-26 19:14 36.06019 10.90840 15454 ft 344 kts 273°
2026-04-26 19:14 36.06110 10.87900 14889 ft 341 kts 273°
2026-04-26 19:14 36.06199 10.84989 14321 ft 337 kts 273°
2026-04-26 19:14 36.06257 10.83079 13949 ft 335 kts 273°
2026-04-26 19:15 36.06372 10.79249 13118 ft 331 kts 274°
2026-04-26 19:15 36.06457 10.76422 12545 ft 327 kts 274°
2026-04-26 19:15 36.06540 10.73623 11985 ft 324 kts 274°
2026-04-26 19:15 36.06622 10.70854 11425 ft 321 kts 274°
2026-04-26 19:16 36.06702 10.68107 10875 ft 319 kts 274°
2026-04-26 19:16 36.06778 10.65452 10687 ft 305 kts 274°
2026-04-26 19:16 36.06851 10.62882 10521 ft 292 kts 274°
2026-04-26 19:16 36.06921 10.60423 10388 ft 280 kts 274°
2026-04-26 19:17 36.06987 10.58073 10268 ft 268 kts 274°
2026-04-26 19:17 36.07051 10.55820 10146 ft 257 kts 274°
2026-04-26 19:17 36.07114 10.53633 9827 ft 254 kts 274°
2026-04-26 19:17 36.07176 10.51457 9502 ft 252 kts 274°
2026-04-26 19:18 36.07236 10.49297 9163 ft 251 kts 274°
2026-04-26 19:18 36.07295 10.47150 8824 ft 250 kts 274°
2026-04-26 19:18 36.07354 10.45010 8485 ft 249 kts 274°
2026-04-26 19:18 36.07172 10.42889 8128 ft 252 kts 252°
2026-04-26 19:19 36.06486 10.40904 7832 ft 251 kts 248°
2026-04-26 19:19 36.05766 10.38941 7501 ft 250 kts 248°
2026-04-26 19:19 36.05046 10.36983 7172 ft 250 kts 248°
2026-04-26 19:19 36.04328 10.35026 6851 ft 251 kts 248°
2026-04-26 19:20 36.03603 10.33043 6254 ft 254 kts 248°
2026-04-26 19:20 36.03122 10.31724 5925 ft 254 kts 248°
2026-04-26 19:20 36.02165 10.29093 5469 ft 253 kts 248°
2026-04-26 19:20 36.01449 10.27123 5244 ft 247 kts 248°
2026-04-26 19:21 36.00768 10.25255 5167 ft 230 kts 248°
2026-04-26 19:21 36.00132 10.23515 5058 ft 215 kts 248°
2026-04-26 19:21 35.99551 10.21891 4926 ft 200 kts 253°
2026-04-26 19:21 35.99500 10.20294 4857 ft 179 kts 290°
2026-04-26 19:22 36.00142 10.18994 4667 ft 180 kts 316°
2026-04-26 19:22 36.01230 10.18211 4483 ft 185 kts 339°
2026-04-26 19:22 36.02471 10.17749 4275 ft 187 kts 342°
2026-04-26 19:22 36.03721 10.17322 4090 ft 184 kts 343°
2026-04-26 19:23 36.04954 10.16929 3932 ft 186 kts 350°
2026-04-26 19:23 36.06228 10.17184 3743 ft 191 kts 27°
2026-04-26 19:23 36.07235 10.18264 3530 ft 197 kts 58°
2026-04-26 19:23 36.07675 10.19833 3323 ft 193 kts 88°
2026-04-26 19:24 36.07709 10.21452 3157 ft 188 kts 92°
2026-04-26 19:24 36.07694 10.23058 2973 ft 188 kts 91°
2026-04-26 19:24 36.07669 10.26184 2518 ft 170 kts 92°
2026-04-26 19:25 36.07660 10.27555 2308 ft 152 kts 92°
2026-04-26 19:25 36.07655 10.28404 2168 ft 140 kts 92°
2026-04-26 19:25 36.07645 10.29944 1906 ft 136 kts 91°
2026-04-26 19:25 36.07647 10.31123 1706 ft 136 kts 91°
2026-04-26 19:26 36.07649 10.32277 1545 ft 134 kts 91°
2026-04-26 19:26 36.07650 10.33422 1380 ft 132 kts 91°
2026-04-26 19:26 36.07645 10.34558 1189 ft 132 kts 92°
2026-04-26 19:26 36.07633 10.35688 1041 ft 130 kts 93°
2026-04-26 19:27 36.07610 10.36807 830 ft 130 kts 91°
2026-04-26 19:27 36.07608 10.37914 678 ft 128 kts 91°
2026-04-26 19:27 36.07590 10.39016 499 ft 128 kts 91°
2026-04-26 19:27 36.07581 10.40139 366 ft 132 kts 88°
2026-04-26 19:28 36.07581 10.41255 201 ft 129 kts 89°
2026-04-26 19:28 36.07579 10.42367 44 ft 128 kts 89°
2026-04-26 19:28 36.07578 10.43365 29 ft 104 kts 90°
2026-04-26 19:28 36.07575 10.44112 31 ft 58 kts 90°
2026-04-26 19:29 36.07573 10.44438 28 ft 23 kts 91°
2026-04-26 19:29 36.07583 10.44618 31 ft 20 kts 76°
2026-04-26 19:29 36.07628 10.44758 30 ft 16 kts 60°
2026-04-26 19:29 36.07680 10.44852 28 ft 9 kts 32°
2026-04-26 19:30 36.07735 10.44829 28 ft 9 kts 303°
2026-04-26 19:30 36.07742 10.44754 29 ft 9 kts 269°
2026-04-26 19:30 36.07741 10.44680 29 ft 9 kts 270°
2026-04-26 19:30 36.07743 10.44631 29 ft 8 kts 272°
2026-04-26 19:31 36.07744 10.44538 31 ft 8 kts 270°
2026-04-26 19:31 36.07744 10.44470 32 ft 8 kts 270°
2026-04-26 19:31 36.07744 10.44404 32 ft 8 kts 270°
2026-04-26 19:31 36.07744 10.44322 32 ft 11 kts 270°
2026-04-26 19:32 36.07745 10.44199 31 ft 17 kts 270°
2026-04-26 19:32 36.07746 10.44057 31 ft 13 kts 270°
2026-04-26 19:32 36.07750 10.43966 31 ft 7 kts 293°
2026-04-26 19:32 36.07791 10.43936 30 ft 7 kts 353°
2026-04-26 19:33 36.07840 10.43937 30 ft 7 kts
2026-04-26 19:33 36.07889 10.43937 28 ft 7 kts 360°
2026-04-26 19:33 36.07937 10.43937 27 ft 7 kts
2026-04-26 19:33 36.07984 10.43937 25 ft 7 kts 360°
2026-04-26 19:34 36.08029 10.43948 26 ft 7 kts 26°
2026-04-26 19:34 36.08068 10.43978 22 ft 8 kts 15°
2026-04-26 19:34 36.08127 10.43966 16 ft 6 kts 343°
2026-04-26 19:34 36.08142 10.43960 15 ft 1 kts 342°
2026-04-26 19:35 36.08144 10.43959 15 ft 0 kts 342°